This is the latest recevied weather packets stored in our database for station/object KC3ULW-13. If no packets are shown the sender has not sent any weather packets the latest 10 day(s).
| Time | Temp. | Humidity | Pressure | Rain* | Wind** | Luminosity | Snow |
|---|---|---|---|---|---|---|---|
| 1777824429 | 12.22° C | 40% | 1019.6 hPa | 0 mm | - | 616 W/m² | - |
| 1777824125 | 12.22° C | 39% | 1019.8 hPa | 0 mm | - | 626 W/m² | - |
| 1777823821 | 11.67° C | 40% | 1019.8 hPa | 0 mm | - | 613 W/m² | - |
| 1777823519 | 12.78° C | 39% | 1019.9 hPa | 0 mm | - | 651 W/m² | - |
| 1777823210 | 11.67° C | 39% | 1020 hPa | 0 mm | - | 639 W/m² | - |
| 1777822909 | 12.22° C | 43% | 1019.9 hPa | 0 mm | - | 681 W/m² | - |
| 1777822606 | 11.67° C | 42% | 1019.9 hPa | 0 mm | - | 688 W/m² | - |
| 1777822303 | 11.67° C | 40% | 1020 hPa | 0 mm | - | 677 W/m² | - |
| 1777822000 | 11.11° C | 41% | 1020.1 hPa | 0 mm | - | 687 W/m² | - |
| 1777821698 | 11.11° C | 42% | 1020 hPa | 0 mm | - | 697 W/m² | - |
| 1777821396 | 10.56° C | 41% | 1019.9 hPa | 0 mm | - | 707 W/m² | - |
| 1777821092 | 11.11° C | 43% | 1020 hPa | 0 mm | - | 700 W/m² | - |
| 1777820789 | 10.56° C | 43% | 1020.5 hPa | 0 mm | - | 708 W/m² | - |
| 1777820485 | 10.56° C | 42% | 1020.2 hPa | 0 mm | - | 721 W/m² | - |
| 1777820182 | 10.56° C | 43% | 1020 hPa | 0 mm | - | 725 W/m² | - |
| 1777819880 | 10.56° C | 42% | 1020.1 hPa | 0 mm | - | 714 W/m² | - |
| 1777819577 | 10.56° C | 42% | 1020.3 hPa | 0 mm | - | 678 W/m² | - |
| 1777819274 | 10.56° C | 43% | 1020.2 hPa | 0 mm | - | 643 W/m² | - |
| 1777818971 | 10° C | 46% | 1020.2 hPa | 0 mm | - | 615 W/m² | - |
| 1777818668 | 10.56° C | 46% | 1020.1 hPa | 0 mm | - | 635 W/m² | - |
| 1777818365 | 10° C | 48% | 1020.2 hPa | 0 mm | - | 631 W/m² | - |
| 1777818062 | 10° C | 50% | 1020.4 hPa | 0 mm | - | 610 W/m² | - |
| 1777817758 | 9.44° C | 51% | 1020.5 hPa | 0 mm | - | 602 W/m² | - |
| 1777817456 | 9.44° C | 53% | 1020.3 hPa | 0 mm | - | 599 W/m² | - |
| 1777817151 | 10° C | 54% | 1020.3 hPa | 0 mm | - | 574 W/m² | - |
* Rain latest hour (hover to see other rain measurements)
** Current wind speed in m/s (hover to see current wind gust speed)